Theta_e
309 309 309 310 310 310 312 312 314 315 316 313 311 312 304 303 302 302 307 308 312 303 296 298 296 295 298 305 303 305 302 301 303 300 300 298 302 299 299 300 298 300 298 297 293 293 290 292 290 293 293 295 297 293 294 300 300 300 296 298 295 294 290 288 290 292 291 291 294 294 292 294 292 293 295 295 291 292 290 290 289 287 286 284 285 282 287
307 308 308 308 309 309 309 309 310 310 313 315 312 308 303 303 299 301 308 309 307 300 290 290 293 294 299 300 300 301 302 302 299 300 300 299 297 297 298 300 302 299 301 298 293 295 287 292 292 291 294 293 292 293 294 298 297 297 295 293 298 289 290 289 285 285 287 288 291 291 292 292 290 291 293 295 296 296 291 288 290 287 288 287 286 281 287
306 306 306 307 307 307 307 307 308 308 309 311 312 305 302 299 301 300 302 305 303 296 299 295 293 295 295 296 295 295 296 302 302 301 299 301 299 298 296 299 302 299 300 297 297 295 293 289 292 294 294 294 291 292 293 294 296 298 293 293 300 292 289 287 283 281 280 279 280 283 284 285 289 290 291 293 293 292 288 286 288 284 287 286 286 286 290
306 306 306 305 306 305 305 306 306 306 306 307 308 306 299 297 291 296 297 301 298 299 298 299 297 295 295 293 295 296 294 295 298 302 299 300 299 299 297 296 300 295 293 293 294 294 296 293 289 290 291 292 290 290 292 292 294 293 293 292 294 289 290 290 289 288 287 288 287 290 292 288 285 287 288 291 293 293 291 290 287 285 287 286 288 289 288
307 306 306 305 305 304 305 305 305 305 305 305 306 301 302 300 296 291 289 297 297 294 299 296 299 294 298 290 294 291 294 295 293 299 295 299 298 295 296 295 293 293 294 293 293 296 294 292 289 289 292 290 289 290 290 290 291 291 292 293 291 288 287 289 290 289 289 285 288 290 293 288 289 288 287 290 290 289 287 287 285 289 286 283 289 291 287
307 307 306 305 304 304 304 304 304 305 304 304 306 298 299 293 298 300 301 295 289 289 291 295 296 300 299 292 296 292 292 292 289 295 297 297 299 293 292 294 297 297 294 294 288 289 290 289 287 290 289 288 289 289 290 289 291 291 290 292 291 287 286 289 289 288 288 287 288 290 290 291 291 290 289 288 289 287 285 286 290 290 286 284 289 290 287
306 307 307 306 305 304 304 303 304 303 304 304 303 297 296 297 295 297 300 294 298 295 297 296 296 295 297 293 293 291 292 291 294 293 291 293 293 297 288 291 294 296 297 293 288 288 285 286 289 289 288 287 287 286 288 291 291 291 290 290 289 289 286 288 289 287 287 285 286 286 288 287 288 290 290 290 289 287 287 287 289 289 287 289 290 290 289
306 306 307 307 306 305 304 303 303 303 303 304 299 298 295 290 294 292 296 296 296 298 297 296 295 291 295 289 289 292 292 291 294 294 292 287 290 297 292 292 293 295 295 293 289 291 292 291 287 289 288 287 288 288 291 288 287 290 289 290 290 289 286 289 287 286 286 285 284 285 286 286 285 288 290 290 290 289 288 288 288 288 288 289 289 288 288
306 306 306 307 307 306 305 303 303 303 303 299 297 296 297 296 294 299 294 291 291 294 295 294 293 291 291 290 291 292 293 293 296 293 297 293 289 293 291 294 291 291 292 292 293 296 293 291 290 291 290 287 291 289 289 293 286 287 287 288 287 288 286 286 286 284 284 282 284 283 284 284 284 285 287 288 288 285 286 285 288 287 286 288 287 286 286
305 306 306 306 306 307 306 304 303 302 303 299 298 293 297 295 296 295 297 291 294 290 294 294 293 287 291 292 293 292 292 296 295 288 292 292 295 296 295 295 292 288 289 290 294 296 293 292 293 294 294 294 293 295 293 293 289 286 287 287 286 287 286 283 285 282 283 280 283 283 282 283 280 283 286 288 289 290 289 289 289 289 289 286 284 285 292
304 305 305 306 306 306 307 305 304 302 302 297 296 294 294 294 294 295 297 289 290 291 292 291 291 293 294 294 294 296 295 295 294 289 288 292 293 297 298 295 291 290 289 293 298 296 295 295 294 296 294 292 291 291 293 292 292 290 287 286 286 286 286 285 287 281 279 277 282 283 281 275 278 289 293 291 287 287 286 285 287 289 289 288 290 290 292
304 304 305 305 306 305 306 306 305 303 302 301 301 296 297 297 297 295 290 288 288 291 291 288 292 293 294 295 295 294 294 294 294 296 291 289 294 296 297 296 294 288 294 296 295 295 294 293 293 292 290 289 289 289 289 288 288 291 292 288 286 285 286 285 286 282 277 280 281 279 274 278 286 286 291 293 292 290 288 288 289 289 290 290 289 290 289
303 304 304 305 305 305 305 305 306 304 303 301 300 296 297 297 297 293 290 289 288 288 287 289 292 292 293 295 294 295 296 297 297 296 293 290 290 294 297 295 293 292 296 295 295 294 288 284 285 285 284 285 286 286 286 286 286 288 288 289 287 285 285 285 283 282 280 278 280 273 275 284 285 286 286 287 289 290 289 287 289 290 290 290 289 290 292
303 303 303 304 305 305 305 304 305 305 304 301 298 298 296 297 293 291 290 288 287 290 291 291 290 289 290 292 294 293 293 292 292 294 291 292 291 292 293 293 293 295 296 297 293 290 285 286 282 284 282 285 284 283 285 285 283 285 286 286 287 287 286 286 281 285 275 279 278 279 284 284 286 283 283 286 285 284 285 281 285 289 290 290 289 290 291
303 303 303 303 304 304 305 304 304 305 305 302 301 298 296 297 298 294 292 290 286 287 290 286 289 290 290 289 291 289 290 288 289 287 288 289 288 287 288 288 289 295 297 292 287 288 285 286 280 280 281 280 276 279 285 282 282 280 281 283 285 287 285 287 282 281 283 278 277 278 278 275 281 289 289 289 289 288 288 285 283 288 289 291 290 289 290
302 302 302 302 303 304 304 304 304 304 305 303 300 298 298 299 299 297 293 288 288 283 286 291 293 291 289 288 290 289 287 287 287 286 285 285 284 286 287 288 288 292 293 290 288 286 285 282 279 281 277 280 282 279 277 280 279 280 281 282 283 284 285 284 284 282 281 279 276 276 275 278 287 284 284 287 288 287 287 284 279 287 287 288 288 288 289
301 301 302 302 303 303 303 304 304 304 304 303 297 297 296 300 297 296 292 288 287 285 287 290 291 291 287 285 287 286 289 286 287 284 283 284 284 284 284 287 288 290 290 288 286 285 284 282 284 283 283 283 280 278 281 279 278 277 280 282 282 281 283 283 281 280 282 280 278 276 281 281 285 283 283 285 288 288 286 275 277 286 286 288 288 288 289
301 300 301 302 302 303 303 303 304 304 304 305 300 296 296 299 299 298 292 288 286 287 287 290 290 288 287 288 286 287 288 286 285 286 284 285 283 283 283 286 284 287 287 285 286 284 283 283 280 281 280 285 284 284 274 281 276 277 276 279 278 279 280 282 278 281 282 282 280 282 282 287 285 283 284 285 286 286 278 274 281 283 284 285 289 289 290
300 300 300 301 302 302 303 303 303 303 304 304 301 298 297 299 298 300 293 288 288 286 291 290 290 290 289 288 287 287 287 288 288 284 282 283 284 286 286 285 288 283 286 283 286 283 283 282 287 285 282 281 283 278 284 278 277 279 279 278 278 279 281 281 282 279 280 281 279 280 283 288 285 284 284 286 285 276 276 283 284 285 284 285 288 288 290
299 300 300 300 300 301 301 302 302 302 303 304 301 295 298 299 298 299 294 287 288 287 288 287 288 287 288 288 285 285 285 287 288 286 285 282 286 286 286 282 286 286 285 286 281 286 283 281 283 286 282 282 282 285 279 280 281 277 280 282 280 280 278 276 278 281 282 281 278 278 274 284 284 284 283 284 281 283 285 283 283 285 286 285 286 287 287
299 299 299 300 299 300 301 302 302 302 302 302 301 297 294 297 297 299 299 295 288 286 287 290 287 291 290 290 293 292 290 287 288 286 287 285 287 287 279 281 285 285 281 285 279 282 284 282 285 283 286 284 283 283 277 280 277 282 283 282 282 287 278 278 280 285 278 278 275 277 284 282 284 286 283 284 286 287 285 285 283 284 284 285 286 286 287
299 299 299 299 299 299 300 301 301 301 302 302 301 298 294 297 296 298 298 297 291 287 287 291 291 291 292 292 291 293 295 295 295 295 288 285 287 287 286 286 286 286 287 287 284 283 284 285 285 281 280 282 285 280 282 279 277 277 276 279 277 286 282 284 280 286 282 280 284 283 283 285 286 287 284 288 289 288 287 287 286 283 283 285 286 286 287
298 299 299 299 299 299 299 300 301 300 301 302 301 297 294 295 294 297 295 289 291 292 292 289 290 290 292 292 293 292 290 292 297 294 293 288 286 287 285 287 286 288 286 286 286 286 286 285 281 286 283 285 282 280 278 281 281 278 276 281 283 282 283 282 282 283 286 284 283 284 284 285 286 285 286 285 286 284 284 286 285 285 286 286 286 287 286
298 298 298 299 299 299 299 299 300 300 300 301 300 298 296 296 295 293 290 289 287 285 288 288 286 284 285 287 292 291 291 291 295 296 298 295 286 286 287 286 288 286 285 285 286 287 285 284 283 284 280 285 285 281 278 277 279 281 279 280 282 283 282 281 280 283 282 278 282 283 283 285 285 286 285 285 285 285 285 285 287 288 287 285 286 286 285
297 297 297 298 298 298 298 298 299 300 300 300 300 300 301 296 295 293 288 283 284 285 280 284 285 291 293 295 295 291 291 294 296 295 295 295 294 288 286 288 288 288 287 285 284 286 286 282 280 280 279 285 286 280 286 281 280 283 278 281 281 278 283 279 281 281 280 280 280 280 280 281 282 284 285 285 286 285 284 286 285 285 285 284 284 284 283
296 297 297 298 298 298 298 298 298 299 300 300 299 297 295 294 296 296 293 291 289 287 282 282 285 293 293 291 289 291 294 293 293 294 295 295 296 294 288 286 286 287 285 286 287 286 285 283 283 282 281 281 289 281 282 283 281 283 281 282 284 283 283 276 280 278 281 279 279 280 281 282 283 283 283 285 287 287 284 284 284 283 283 283 283 284 284
295 296 297 297 297 298 298 298 298 299 300 300 299 298 298 298 298 295 291 288 286 282 284 282 286 285 287 289 293 292 293 292 292 292 293 293 292 291 290 289 286 286 285 284 285 285 283 282 283 279 283 281 284 281 282 280 281 280 279 282 282 282 279 282 280 276 277 278 279 280 278 278 282 283 284 285 286 286 285 284 283 283 283 283 283 282 283
295 295 296 296 297 297 298 298 297 298 299 299 299 298 300 297 296 297 297 294 289 283 284 283 284 283 288 286 291 292 293 292 291 291 291 291 291 290 289 287 287 285 285 284 280 281 282 281 280 283 281 280 281 278 281 280 280 278 279 282 284 281 282 282 278 279 278 283 282 284 284 284 285 286 286 286 285 285 284 284 284 284 284 284 283 283 283
294 295 295 295 296 296 297 298 297 297 299 298 298 295 295 297 297 298 298 297 295 287 285 284 286 285 280 284 293 289 291 291 290 290 290 290 290 289 289 288 287 287 286 286 284 283 282 283 286 281 281 284 283 278 281 274 276 275 280 284 284 285 287 285 284 284 284 283 283 284 283 282 284 286 286 286 286 284 284 284 285 285 285 284 284 284 284
294 295 295 295 295 296 296 296 297 298 297 297 293 289 286 287 296 295 297 297 296 290 284 281 278 281 287 284 284 288 288 290 290 289 288 287 288 288 288 287 287 289 286 284 284 280 283 282 283 283 283 287 281 280 278 277 277 278 284 285 286 285 285 286 287 284 283 286 285 285 285 285 287 285 285 285 285 285 284 284 285 285 285 285 284 284 285
293 294 294 294 295 296 296 296 297 297 296 292 289 284 282 281 289 297 297 298 296 290 286 286 282 286 282 286 286 286 287 288 287 287 287 287 287 288 288 288 286 287 283 283 283 283 283 280 282 281 284 285 284 280 276 276 275 278 283 285 285 285 284 284 286 287 287 286 284 284 284 284 285 283 283 283 283 283 283 284 285 285 285 285 285 284 284
294 294 294 295 295 295 295 296 296 296 296 291 287 285 288 289 296 297 298 298 294 287 284 281 281 281 280 284 283 286 289 287 286 286 287 288 285 288 286 288 284 288 286 283 283 283 281 283 282 281 281 284 285 279 280 278 276 277 283 284 286 286 285 284 285 286 286 285 282 281 281 281 283 282 282 284 284 283 283 283 284 284 284 284 284 284 283
294 295 295 294 294 295 295 296 296 295 293 294 297 298 293 294 296 298 298 295 290 286 287 284 278 282 281 281 283 282 287 286 284 285 283 287 283 286 282 287 286 285 289 284 281 280 283 282 283 280 282 287 281 279 279 277 278 283 284 285 285 285 284 285 285 285 285 284 284 280 280 281 282 283 284 285 285 283 283 283 283 283 282 280 279 280 280
294 294 295 294 294 294 295 295 296 296 295 291 286 288 294 296 296 297 297 291 288 288 288 283 279 279 277 285 278 283 289 283 281 284 280 286 286 285 282 283 284 281 284 282 283 281 282 282 280 281 283 281 283 279 275 278 282 283 284 285 285 284 284 283 282 283 283 283 284 284 284 285 285 285 284 284 283 284 284 283 281 279 278 278 279 280 281
294 294 294 295 293 295 295 294 291 289 286 287 288 293 296 297 297 297 294 289 283 281 282 282 283 278 275 275 276 281 287 285 281 284 281 284 287 282 284 280 282 279 279 287 281 282 280 280 284 279 276 282 279 275 277 279 281 283 283 283 284 285 282 281 281 283 283 283 283 283 284 284 283 282 282 283 283 283 281 280 280 279 278 279 280 280 281
293 293 294 294 294 293 292 292 289 286 285 285 287 294 296 298 297 296 293 285 285 283 281 280 282 278 278 272 273 280 287 281 285 284 284 284 281 285 284 281 276 280 285 282 276 281 279 284 282 275 281 276 274 277 279 282 281 282 283 283 284 284 283 282 283 283 283 283 282 282 282 282 282 282 283 283 283 282 281 280 279 279 279 279 280 281 281
294 294 294 293 292 288 284 284 290 287 286 291 294 296 297 295 292 293 289 286 284 281 281 282 279 279 281 279 282 282 284 275 284 280 282 279 277 283 280 279 275 282 279 276 278 277 281 288 280 275 277 275 277 281 282 283 283 282 283 284 285 285 285 285 285 284 282 279 279 280 281 280 280 281 281 281 282 282 279 279 279 278 276 277 279 280 280
294 294 290 286 284 280 280 283 285 290 294 294 295 290 288 289 283 284 284 282 284 282 278 282 280 281 283 282 275 284 282 279 284 278 279 282 279 277 282 279 278 281 271 275 278 284 282 281 277 275 276 281 283 283 283 284 284 285 285 285 285 285 285 285 285 283 278 275 275 275 275 275 277 279 279 279 280 280 280 281 280 280 280 279 279 280 280
290 288 286 286 282 279 281 284 293 294 292 292 290 284 280 284 282 279 277 281 283 277 281 281 278 278 279 280 281 286 281 281 278 280 276 282 277 274 280 272 279 281 275 276 277 286 275 277 277 276 275 279 281 282 285 285 285 285 285 286 286 286 286 285 285 284 282 281 282 282 279 278 277 277 278 278 279 281 281 281 280 280 280 280 279 279 279
287 283 282 282 281 283 290 293 295 292 290 283 284 282 276 281 278 273 282 274 274 278 282 276 282 278 281 280 278 278 285 282 276 277 278 280 285 276 280 276 279 278 270 273 276 284 275 272 276 275 274 279 280 284 285 285 285 285 286 286 286 286 286 286 285 286 286 285 285 285 284 284 283 282 282 281 280 279 280 280 280 280 279 279 279 278 278
285 284 284 281 285 288 289 292 290 288 283 279 279 276 276 273 276 277 277 273 274 274 282 281 280 277 281 281 281 277 285 285 284 286 283 277 285 281 277 272 283 274 271 273 279 278 276 274 275 274 275 280 281 283 284 284 285 285 286 286 286 286 286 286 286 285 284 283 284 283 283 281 281 282 282 280 280 280 279 278 277 277 276 276 276 275 272
286 285 287 289 288 289 289 287 285 281 279 281 274 271 274 275 276 270 272 272 273 275 273 278 276 278 278 281 281 283 280 283 284 283 280 275 282 277 276 274 274 271 270 276 278 275 276 270 272 273 279 281 282 282 282 282 279 278 275 271 273 274 279 282 283 281 283 282 282 281 277 274 273 270 265 267 271 271 270 271 272 269 268 265 264 264 264
291 290 288 285 285 282 283 277 280 279 271 270 270 268 272 268 269 271 273 273 274 275 275 282 281 284 282 284 279 282 280 283 280 280 279 276 281 277 274 272 271 267 272 277 274 272 269 269 272 275 279 272 269 269 266 265 266 271 269 267 265 267 269 272 275 274 267 266 266 266 264 263 259 257 257 260 263 261 259 258 259 259 258 259 260 259 258
288 286 281 279 278 278 279 269 278 273 271 272 269 266 269 267 271 271 267 268 272 274 279 276 278 279 275 283 279 279 280 280 281 278 276 278 274 272 273 269 270 276 276 269 270 268 270 272 275 277 274 268 265 261 261 261 259 263 269 266 263 262 264 268 269 270 267 264 263 261 260 259 258 258 256 255 257 262 259 257 257 257 257 258 258 258 257
281 279 278 276 273 277 274 268 276 271 267 269 273 271 271 268 271 273 272 277 277 275 280 280 281 279 276 279 281 280 281 276 284 277 273 275 271 274 270 270 274 273 270 268 269 268 270 268 275 276 273 267 261 258 257 257 256 256 257 261 261 257 257 259 260 260 260 258 258 259 259 258 257 255 254 254 254 254 256 256 255 256 257 257 257 257 257
278 276 275 270 268 273 272 268 269 267 272 274 272 274 274 274 275 275 276 276 277 279 277 279 280 279 275 278 277 276 279 278 275 274 276 274 272 269 273 275 274 269 269 269 266 266 269 273 276 268 259 257 257 256 255 255 255 255 257 259 256 254 254 254 255 256 255 256 256 256 256 257 256 255 253 252 252 253 253 253 254 255 256 257 257 256 256
277 277 276 275 271 272 273 269 269 271 271 274 274 276 277 277 277 276 272 275 279 280 281 281 280 279 275 274 274 273 273 276 273 276 276 269 269 272 276 271 267 269 266 265 267 268 273 272 263 258 255 255 254 254 254 254 254 253 253 253 253 253 253 253 253 253 254 255 256 255 254 254 253 254 254 253 252 251 251 252 253 254 255 255 255 255 255
274 276 274 269 268 270 267 268 268 267 266 269 270 269 271 272 274 273 272 274 280 281 278 278 275 276 274 278 278 273 272 273 272 271 274 272 273 268 269 267 267 270 270 269 270 274 270 262 258 255 255 254 252 252 253 253 252 252 251 252 252 252 251 251 251 251 252 253 253 253 253 253 253 253 252 252 251 251 250 250 251 252 253 253 253 253 253
274 271 270 267 266 269 269 269 270 271 270 269 269 269 270 272 274 272 272 272 277 279 280 278 277 277 272 275 274 274 270 274 269 269 272 269 268 266 267 263 266 265 269 272 271 265 260 255 254 254 253 252 253 251 252 252 251 251 250 250 250 250 250 250 250 251 251 251 252 252 252 252 253 253 253 252 252 251 250 250 251 251 251 252 252 252 252
271 268 267 267 267 267 268 269 271 269 269 269 270 271 272 272 270 269 270 274 279 279 279 278 279 274 271 270 268 270 271 271 270 273 269 268 267 266 266 262 264 267 270 266 261 257 255 254 255 253 253 251 252 252 251 251 251 251 251 250 251 250 250 249 250 251 251 251 251 251 251 253 253 253 252 251 251 251 250 249 250 250 250 251 252 252 252
269 265 262 262 263 263 266 267 268 268 268 268 268 266 267 270 269 268 266 268 277 278 277 274 272 270 270 268 269 266 268 274 270 269 269 268 269 266 265 267 268 267 260 255 255 254 254 253 253 252 251 251 251 251 251 250 251 250 250 250 250 251 251 250 250 250 251 251 251 251 250 250 251 252 252 253 253 252 251 251 250 250 251 251 251 251 250
267 264 262 263 263 261 261 265 264 263 263 263 263 263 264 266 265 265 266 266 274 274 271 269 269 268 267 268 269 270 271 271 270 270 267 265 262 265 264 261 257 254 255 255 254 253 253 252 251 249 249 249 250 250 250 250 250 250 249 249 249 250 250 250 250 251 251 250 250 250 250 250 251 252 253 254 255 255 254 252 251 250 250 250 249 249 249
Wind_Speed
6 6 6 7 7 7 7 6 5 5 10 4 3 4 2 6 6 4 3 3 18 13 13 11 8 9 9 2 4 5 5 7 8 10 5 9 3 3 5 8 6 6 5 3 5 9 5 9 10 4 6 9 2 1 2 6 11 9 2 6 3 5 1 3 5 4 2 3 4 1 1 2 6 8 5 8 16 16 12 5 2 8 4 3 4 7 3
5 4 4 5 5 6 8 8 7 9 8 6 5 3 3 1 2 3 0 2 3 16 14 11 13 13 4 10 6 2 4 10 12 13 11 9 7 11 8 3 12 6 6 4 7 9 3 6 10 8 6 4 5 2 1 7 8 11 4 6 7 6 6 5 2 2 2 3 4 5 3 4 9 10 12 10 7 6 1 3 1 5 10 8 7 14 3
2 2 2 2 3 4 5 6 7 7 7 3 5 5 3 4 2 1 1 2 5 13 6 12 14 15 15 14 15 8 4 3 9 13 13 9 5 5 7 9 5 6 5 7 4 7 14 1 5 9 3 4 3 2 0 4 5 3 1 3 1 8 5 9 10 12 12 11 13 13 12 13 6 4 6 11 13 8 5 9 6 8 8 9 9 12 2
3 3 2 1 0 2 2 4 4 6 7 7 2 3 5 5 4 3 1 2 3 4 3 3 9 11 12 12 12 12 6 0 2 7 9 12 6 4 3 3 6 5 4 6 9 11 7 9 2 5 6 3 1 1 2 1 1 2 3 2 3 2 2 9 15 14 12 5 3 6 7 9 11 14 8 12 13 9 6 1 5 14 3 7 15 12 5
6 5 4 2 2 2 1 1 4 4 5 7 0 2 2 0 6 6 3 2 6 2 1 4 8 14 13 7 6 10 13 5 0 4 4 8 10 3 2 4 7 7 11 12 11 12 8 6 3 7 7 2 1 2 0 3 1 2 2 1 4 1 5 12 16 15 6 3 2 6 3 10 11 10 14 10 12 12 13 13 18 5 5 14 10 6 8
6 8 7 5 4 3 3 2 2 3 4 7 1 3 1 5 1 4 3 6 7 9 9 7 8 6 15 8 6 13 14 9 6 2 3 3 7 7 2 6 13 11 15 10 5 5 9 6 9 6 1 2 2 1 2 3 1 3 2 0 4 4 10 12 8 14 3 1 1 4 4 3 5 14 14 14 13 12 17 20 16 8 12 13 7 7 8
6 6 8 8 7 5 4 3 1 1 1 3 1 4 2 1 3 1 2 4 3 16 13 15 11 11 15 7 12 12 17 18 13 7 7 5 5 12 7 12 15 14 9 8 6 6 4 10 9 7 6 7 4 2 1 4 3 3 3 3 1 3 11 5 3 12 5 1 2 1 3 1 2 6 11 12 13 17 19 16 13 8 9 10 7 2 6
7 5 7 9 10 8 6 4 2 3 1 1 2 3 3 5 4 3 2 3 0 6 5 8 10 8 9 6 8 10 15 17 11 5 8 5 5 7 14 15 12 13 12 11 11 15 16 6 8 8 5 1 4 7 5 2 2 1 6 4 2 7 5 8 3 5 10 4 1 1 1 2 3 6 7 11 13 10 9 11 8 8 11 15 8 8 12
10 8 5 7 11 10 8 5 4 4 3 2 4 2 2 2 2 2 5 5 3 3 7 9 12 8 5 7 6 8 12 15 13 8 9 14 11 14 20 18 6 7 11 13 17 14 8 5 4 8 15 12 7 8 3 8 6 6 3 3 1 4 4 3 4 7 9 3 6 3 3 2 3 8 13 15 13 11 13 12 9 9 14 10 6 9 14
10 10 9 7 8 11 11 9 6 4 3 2 1 3 1 1 1 0 2 4 5 5 5 8 9 11 9 11 12 9 12 9 11 4 1 1 2 9 14 11 9 4 10 18 19 6 7 7 7 6 4 5 5 2 4 8 10 8 8 2 5 6 5 5 5 9 6 3 4 6 5 2 4 16 20 10 9 9 8 8 10 14 9 7 11 14 6
10 10 11 10 7 8 12 12 9 7 4 4 3 2 2 2 1 1 2 3 2 6 6 7 13 4 10 11 8 7 7 9 11 12 3 5 5 5 8 11 10 6 11 7 7 12 9 7 6 5 7 7 6 4 4 3 1 5 9 5 2 4 5 6 2 6 2 1 5 5 5 6 10 3 6 13 13 14 13 12 12 9 9 9 7 8 3
12 10 10 11 10 7 8 13 12 11 8 3 1 2 2 1 1 2 2 6 3 6 8 8 11 2 9 12 11 11 13 16 16 14 9 5 6 6 8 8 8 6 5 11 12 12 11 7 11 10 8 6 4 3 4 5 2 1 1 4 6 7 6 6 1 4 3 4 6 5 9 12 3 5 3 11 16 13 13 13 11 11 13 12 10 12 7
12 11 10 10 12 11 7 8 14 13 10 3 2 3 2 1 1 2 1 3 5 7 6 4 1 3 2 10 11 8 7 8 7 5 5 8 5 8 8 6 12 4 12 14 13 11 7 5 6 4 4 3 2 3 3 5 5 2 1 1 4 7 7 4 2 3 3 3 7 5 6 2 3 2 3 4 2 7 8 11 14 15 13 11 13 14 13
13 12 11 10 11 12 11 7 8 14 14 7 4 3 2 2 3 1 1 1 2 3 6 3 4 5 5 7 10 4 6 5 4 5 7 2 9 12 3 3 1 10 10 11 10 10 5 2 3 3 2 3 1 2 4 3 2 2 5 5 0 3 2 2 3 3 5 4 8 7 8 12 8 7 5 10 9 8 10 8 13 10 9 10 12 14 13
13 13 13 11 10 11 12 10 7 10 15 11 4 1 2 2 1 2 1 1 1 0 3 8 7 10 8 5 7 6 6 6 8 2 3 3 5 3 2 1 2 8 9 10 4 1 2 4 4 5 4 5 6 6 4 3 3 3 3 2 1 3 4 2 4 4 5 3 2 2 3 9 7 2 6 12 7 7 9 7 10 4 9 12 13 14 13
14 14 13 13 12 11 11 10 9 8 11 13 5 3 3 3 1 2 2 2 1 3 4 7 2 7 6 3 4 11 7 6 6 4 4 2 2 4 3 2 2 1 2 2 3 4 3 5 7 8 6 7 1 6 4 5 0 1 2 1 1 1 1 3 4 3 5 5 6 6 6 8 4 2 3 7 5 8 5 3 8 5 10 10 11 12 11
14 15 14 13 12 12 12 11 10 9 9 12 5 5 4 5 3 4 3 1 1 6 3 3 2 4 6 3 3 2 2 6 6 5 4 4 4 4 1 2 2 2 5 4 2 3 5 4 3 4 0 4 6 5 4 3 4 1 3 4 3 3 3 3 5 6 7 7 7 9 5 6 0 4 2 4 7 9 6 2 7 3 10 9 11 13 9
14 14 14 14 13 13 13 13 11 10 10 13 8 4 3 5 4 3 3 2 4 3 3 5 8 6 7 4 5 2 4 4 5 2 3 3 5 3 4 2 2 3 1 6 5 4 7 6 9 6 7 1 2 5 5 6 5 5 6 7 6 4 3 6 10 8 11 13 9 3 5 4 4 5 7 5 2 4 7 11 1 2 3 1 5 7 7
12 13 14 15 14 13 13 13 13 12 10 11 7 4 3 4 6 2 3 2 3 4 4 3 3 1 3 6 5 3 1 1 4 7 5 4 2 3 5 0 1 5 2 4 5 5 8 5 2 2 5 2 2 5 3 5 6 3 7 7 2 1 3 3 5 8 11 11 11 7 5 2 4 4 8 8 8 6 10 1 3 7 4 4 5 5 5
12 11 13 15 16 14 14 13 14 13 12 12 9 5 1 5 7 7 7 4 2 1 2 6 4 6 3 7 6 5 2 3 0 3 6 5 4 11 2 3 2 1 3 2 4 2 5 8 7 3 5 5 4 2 2 1 3 7 4 4 4 9 8 7 9 4 2 2 7 3 8 1 7 12 6 4 3 2 6 6 3 1 3 7 5 5 3
12 12 11 13 15 15 14 14 13 14 14 13 11 6 5 2 7 6 2 2 3 3 3 2 2 3 4 4 6 10 10 8 7 5 1 3 7 7 7 5 6 5 6 7 7 5 5 7 6 3 1 2 3 3 4 3 1 4 2 4 1 7 4 3 4 6 5 9 9 6 1 4 9 13 6 6 2 3 6 7 3 1 1 4 4 3 4
13 12 12 12 14 16 14 13 13 14 14 14 12 6 7 4 5 5 2 2 1 1 1 1 1 1 1 2 3 2 2 5 9 6 7 4 3 2 1 2 6 5 2 2 1 1 0 1 2 2 3 2 1 6 4 5 5 2 5 1 2 7 8 1 3 7 7 5 3 1 2 4 6 3 5 4 5 3 3 4 7 7 3 3 3 6 5
15 13 12 12 12 14 15 14 12 13 15 14 11 7 8 5 3 3 4 3 2 2 1 1 1 1 3 3 3 2 0 4 1 4 7 6 3 2 1 2 4 1 1 1 2 1 2 3 3 1 1 3 6 4 1 3 4 5 5 7 3 5 1 2 1 2 1 1 4 3 2 3 5 4 3 4 4 2 2 6 5 4 5 6 6 6 5
16 15 14 13 13 13 13 15 13 12 14 15 12 7 7 5 7 6 4 3 1 3 1 1 2 6 9 11 8 2 1 0 3 3 1 6 6 3 1 2 0 2 0 0 2 1 1 1 1 1 3 2 4 4 6 6 5 3 2 2 3 4 4 1 2 1 4 5 6 4 3 3 3 2 2 1 2 2 1 1 3 3 3 4 0 1 3
17 16 16 14 13 13 13 15 14 12 13 16 13 9 5 3 7 10 8 6 4 5 5 4 8 5 3 4 4 2 3 2 2 3 3 3 6 7 5 4 2 2 3 3 2 2 1 2 1 1 5 2 4 5 5 4 3 5 5 4 2 3 6 2 4 4 6 2 4 2 2 1 3 1 2 3 2 3 1 1 3 3 2 2 2 3 2
17 17 17 16 15 14 14 15 14 12 11 13 12 8 7 6 9 9 6 2 2 2 6 6 2 4 3 6 5 4 6 6 4 4 4 2 2 2 8 4 3 3 4 2 1 3 2 1 1 1 3 3 3 3 5 1 1 1 4 7 2 3 9 3 5 4 3 3 1 1 3 2 3 3 5 4 2 2 4 3 2 1 2 2 2 3 3
17 17 16 16 16 15 15 16 15 14 12 12 9 9 7 5 9 12 10 8 6 2 5 6 2 1 1 10 4 5 5 8 6 6 5 4 6 5 6 6 7 4 3 2 2 2 1 1 2 3 4 1 3 0 1 1 0 2 2 5 6 4 6 5 6 2 6 6 6 8 2 2 4 6 7 8 7 4 3 3 3 4 5 5 4 3 4
18 18 17 16 16 16 14 15 15 14 13 12 9 6 5 5 8 9 9 9 9 1 2 6 3 3 2 2 1 4 5 7 8 8 6 6 6 7 8 7 7 5 3 4 2 2 3 5 6 1 2 0 1 0 2 1 2 2 5 9 9 9 9 7 6 7 5 3 9 9 6 6 2 5 6 7 4 5 5 6 7 8 6 5 5 5 5
18 17 18 17 17 16 16 15 15 15 13 9 4 5 4 5 6 8 8 8 5 2 3 3 2 3 5 5 6 3 2 7 9 9 7 7 8 8 8 8 7 5 3 2 2 2 3 4 2 2 2 3 4 1 2 1 4 8 12 6 6 8 5 7 6 7 2 7 6 8 6 6 5 4 5 5 4 5 7 9 9 8 4 6 6 8 8
18 18 18 18 18 17 17 17 15 15 13 5 2 1 2 2 6 10 10 8 7 3 3 4 2 3 2 4 2 6 3 5 7 8 9 6 6 8 8 8 6 6 2 2 4 4 3 2 1 0 1 3 3 3 3 2 7 10 14 11 8 4 7 5 3 6 7 4 7 8 7 7 4 3 5 5 5 7 8 9 7 5 5 6 8 8 8
19 19 19 19 18 17 17 17 17 15 12 3 3 4 4 7 6 11 14 10 5 5 4 2 2 3 2 1 1 8 11 9 10 9 8 8 6 7 3 4 1 4 4 3 4 3 3 3 4 3 3 3 4 3 2 3 6 7 19 15 9 8 8 8 7 8 7 3 3 1 1 1 1 1 3 5 2 3 4 4 7 7 9 7 8 7 6
20 20 19 19 19 19 18 18 18 16 7 6 6 4 0 1 1 12 16 11 8 2 3 5 4 4 3 2 3 1 7 6 5 4 3 6 4 6 4 8 4 7 6 5 4 2 6 5 3 4 5 6 4 1 4 6 9 15 19 6 6 7 7 7 8 8 7 4 6 3 3 6 6 8 8 9 8 9 7 8 9 8 8 7 3 2 3
19 19 19 19 20 19 19 19 19 14 6 10 13 11 3 2 3 11 15 11 6 3 2 3 5 3 2 3 4 1 6 5 4 7 6 5 4 6 3 5 3 3 4 3 5 5 2 4 4 6 5 7 3 3 8 12 14 20 19 7 4 4 7 8 6 6 7 7 9 7 9 10 9 11 12 12 7 9 9 9 9 4 2 2 5 6 4
20 19 19 20 21 19 19 19 18 18 11 5 5 8 9 12 4 11 10 6 3 2 2 4 4 3 2 2 4 5 9 9 7 9 6 7 4 7 6 5 4 4 4 8 5 2 1 3 8 6 5 4 5 5 10 14 21 21 17 10 8 8 7 5 5 7 9 9 11 11 12 10 5 5 8 9 8 6 6 5 3 4 5 5 7 8 7
20 21 20 20 21 19 18 17 9 6 8 6 4 6 6 12 13 11 9 4 5 3 4 3 2 5 3 2 4 4 5 5 8 9 8 6 7 8 7 5 6 6 5 3 2 6 7 7 6 7 10 6 8 8 10 17 20 16 15 15 15 10 6 6 9 12 11 9 8 9 10 8 6 5 7 7 8 8 5 5 5 5 6 7 8 9 6
20 20 19 19 19 16 8 8 7 7 7 8 6 4 10 14 15 10 10 2 1 3 5 4 7 8 6 6 6 5 6 3 5 7 3 5 5 5 5 4 5 6 1 4 5 7 10 7 6 7 7 8 11 10 15 16 16 17 17 17 14 10 11 14 12 7 5 5 9 9 9 7 9 11 11 10 9 6 8 8 6 6 7 8 10 9 8
17 17 17 15 8 5 7 6 6 6 5 6 5 10 12 7 3 5 5 4 1 1 2 7 9 10 11 6 2 5 8 7 5 4 6 5 5 4 4 4 6 4 4 2 6 11 9 7 4 5 9 12 13 16 16 15 17 17 16 15 13 10 10 10 9 5 6 4 5 5 7 7 7 7 10 11 11 5 5 9 10 8 10 12 11 8 8
14 14 8 7 7 5 4 6 5 7 10 10 12 6 2 5 4 3 2 4 2 4 2 1 5 4 2 7 4 9 6 6 7 7 5 5 6 3 3 4 4 6 5 6 7 5 2 7 5 8 9 12 12 12 15 16 16 14 14 13 11 9 8 7 5 6 5 2 1 3 2 4 7 8 9 11 10 9 9 10 8 7 8 8 8 7 5
7 4 3 4 4 4 6 4 9 15 10 5 3 3 4 2 4 4 3 3 3 5 4 6 5 1 5 7 5 6 4 9 9 8 6 8 5 4 5 4 5 5 4 3 4 12 5 6 5 5 7 9 14 17 18 16 13 12 13 12 12 8 4 5 5 8 8 9 10 8 10 10 11 12 10 9 9 9 8 8 6 6 7 8 8 6 5
3 5 4 5 8 6 4 11 22 11 5 4 3 3 3 3 5 4 2 2 2 2 5 9 5 4 7 9 10 7 3 7 11 13 10 7 3 4 3 3 3 5 5 7 5 8 6 7 7 5 7 9 14 19 17 13 12 12 11 12 11 7 4 4 7 6 8 10 9 8 6 7 8 8 7 8 8 9 7 6 6 6 6 7 6 5 6
4 2 3 7 6 4 4 8 6 3 4 5 4 1 2 3 3 1 2 6 3 3 2 5 5 4 4 3 5 6 4 2 2 2 5 5 1 4 3 5 3 4 4 6 2 4 3 4 6 8 10 12 14 14 12 9 10 10 10 8 8 8 8 8 8 6 5 4 6 5 6 5 5 6 5 4 3 4 3 2 4 4 5 5 6 4 0
5 3 1 4 3 4 6 4 3 3 1 1 3 4 4 3 1 3 2 4 5 3 3 3 8 11 11 13 8 5 1 0 0 2 3 4 3 4 3 1 1 3 3 1 3 2 5 4 6 7 11 12 2 3 2 4 0 2 4 8 8 6 6 3 3 0 3 4 4 1 2 3 1 1 2 2 2 2 1 1 1 0 0 0 2 1 2
8 8 5 3 2 2 2 3 4 3 3 3 3 3 3 4 4 4 2 1 2 0 3 2 1 5 4 4 4 2 3 2 3 4 2 4 2 2 2 1 2 2 3 2 2 3 4 4 6 9 3 3 5 5 6 5 5 3 5 6 6 6 5 4 3 2 5 5 3 3 2 2 4 2 2 2 2 5 3 2 1 1 1 1 2 3 3
5 4 2 1 2 3 3 8 3 2 5 3 6 7 6 5 5 2 2 2 3 3 4 9 8 11 9 4 6 5 4 1 0 2 1 1 3 3 3 3 4 1 4 1 2 3 3 2 5 1 5 4 4 6 6 6 6 5 3 7 8 9 8 6 6 3 5 5 5 4 4 5 5 4 5 7 6 2 2 3 2 1 0 1 3 3 2
7 3 3 3 2 2 4 3 3 3 8 7 7 8 8 11 11 8 8 3 5 6 5 3 8 9 7 3 3 1 3 4 3 4 4 3 2 1 3 4 3 1 4 4 2 1 1 3 6 3 4 5 4 5 6 5 6 5 6 6 6 9 9 8 7 5 4 5 5 3 5 4 6 6 5 5 5 5 4 3 5 3 1 2 3 3 3
7 6 6 4 4 3 3 1 2 5 3 3 6 7 8 8 7 6 1 2 4 5 8 7 4 8 6 0 4 5 3 2 4 2 2 1 5 4 2 1 2 3 2 3 4 6 7 6 3 3 4 4 4 4 4 4 5 6 5 5 7 8 8 7 7 6 6 6 5 5 4 4 5 7 7 4 5 5 5 4 4 3 3 2 4 3 3
2 1 1 1 3 3 1 5 4 2 1 2 1 1 2 2 1 2 1 1 5 7 8 3 4 5 8 5 4 2 1 1 3 3 4 3 3 1 2 3 3 4 6 6 4 3 5 2 3 2 4 4 5 5 4 4 5 6 5 5 6 7 7 7 7 7 7 7 5 5 5 4 4 4 3 5 6 6 6 6 6 6 5 4 3 3 4
2 1 0 4 4 3 5 2 1 2 0 0 0 1 1 1 3 2 1 1 3 8 11 9 6 4 3 2 2 3 2 1 4 2 1 2 3 3 2 2 2 2 2 5 8 3 3 3 2 3 4 5 4 5 6 3 2 4 3 3 6 6 7 7 6 6 7 6 5 5 4 3 3 4 5 6 5 5 5 5 5 5 4 4 4 5 5
2 1 0 0 1 1 1 2 4 3 2 1 0 0 1 3 3 2 1 1 4 10 8 9 8 8 3 1 3 4 2 3 4 5 3 1 3 5 5 5 4 2 3 2 1 3 2 2 2 3 4 4 4 4 5 5 2 3 5 3 2 4 5 5 5 6 6 5 5 5 5 6 4 3 5 6 6 4 3 3 4 6 6 5 5 5 6
3 3 4 2 1 0 1 1 1 3 2 2 1 1 1 1 3 1 2 2 5 7 6 7 5 5 1 2 2 1 3 1 2 2 3 5 3 2 4 2 3 5 3 3 3 2 2 1 2 2 3 4 4 4 4 6 6 4 4 4 2 0 2 4 4 5 6 5 5 5 5 4 5 6 7 6 4 3 4 6 6 6 6 5 4 6 7
2 5 3 1 1 1 1 3 3 4 4 2 1 1 2 0 2 2 4 2 5 9 8 8 3 3 4 2 1 2 2 2 4 4 4 3 1 2 3 6 3 3 4 4 3 2 2 2 2 2 3 3 4 5 5 5 6 7 5 4 5 2 0 2 3 4 5 5 5 6 7 6 5 5 4 4 4 5 7 8 8 7 6 6 7 6 6
2 3 3 3 4 4 4 2 4 5 4 3 3 3 3 1 3 4 4 3 4 10 8 2 3 4 3 5 2 1 2 2 2 3 3 1 3 1 1 2 4 4 3 2 3 2 2 2 3 3 3 4 5 6 7 6 4 3 4 5 4 5 4 2 3 4 4 5 5 6 6 4 4 2 2 2 3 5 7 7 7 9 8 6 6 8 7
Wind_Direction
70 67 43 25 23 27 19 17 351 273 195 165 224 121 228 195 211 14 190 335 164 168 195 186 190 204 220 115 191 175 182 186 162 169 184 202 152 135 212 200 177 222 177 142 160 164 202 177 206 219 215 250 49 129 349 130 168 182 350 43 236 39 204 214 249 65 82 142 153 150 74 275 265 251 257 212 208 202 216 238 133 195 161 207 227 249 267
43 50 54 39 24 22 28 24 22 12 216 198 118 189 203 125 115 176 169 86 206 176 188 193 197 206 151 202 198 34 204 182 172 196 179 183 170 207 192 175 209 224 140 163 182 163 230 212 204 234 202 239 101 38 166 185 176 184 211 193 159 178 206 191 154 269 200 204 172 221 157 197 233 221 203 228 233 200 123 53 60 253 206 200 196 244 197
358 26 11 33 34 29 23 26 27 19 355 328 184 205 138 118 53 17 179 73 207 204 200 196 191 195 198 188 198 185 203 244 192 177 185 179 198 162 220 212 127 197 146 191 165 181 197 254 212 227 194 222 80 47 151 303 213 79 67 121 155 200 162 168 199 211 221 216 216 215 196 200 200 233 228 203 217 177 147 216 210 238 228 170 217 241 100
287 275 279 281 20 12 8 34 46 33 7 357 214 199 127 177 207 161 216 204 6 303 17 180 188 201 198 203 206 188 185 129 333 191 188 179 186 194 120 30 162 170 142 202 217 216 214 212 197 185 225 175 20 31 348 286 333 87 74 39 113 199 219 209 211 211 224 239 4 340 92 111 191 206 178 205 202 197 197 230 220 227 192 193 223 221 125
287 266 255 232 246 269 322 33 59 45 4 10 112 32 222 23 218 141 185 58 241 270 241 231 183 200 185 210 161 199 204 158 14 222 184 198 187 118 142 153 164 206 196 214 223 218 214 208 253 216 211 83 113 73 24 19 331 70 126 275 91 45 237 226 230 236 245 107 322 328 230 188 202 185 199 194 190 197 198 201 222 144 92 246 227 150 231
314 270 260 244 238 246 259 276 71 61 24 2 316 213 175 213 226 164 204 183 193 206 235 211 226 220 180 203 165 193 192 176 187 141 252 97 180 165 316 217 207 186 195 194 205 199 218 182 219 221 232 113 164 98 142 190 123 113 166 256 169 177 226 231 231 247 198 357 353 321 335 297 222 195 193 189 187 187 200 218 223 162 207 226 95 156 215
300 288 260 254 253 245 240 258 199 98 21 24 272 216 245 294 355 250 360 193 201 203 199 183 190 199 187 190 180 189 189 199 195 164 151 155 201 196 208 216 210 205 187 173 212 180 179 228 219 200 205 191 133 206 10 238 144 174 134 167 197 171 238 233 199 237 223 325 304 10 307 306 315 219 203 197 185 197 207 219 217 196 235 250 256 178 238
275 281 270 253 250 251 243 234 197 173 130 253 232 242 166 201 165 202 356 350 334 182 147 159 186 212 191 187 211 193 193 201 175 158 150 161 211 193 224 224 193 203 201 196 210 211 208 205 183 205 162 154 197 221 197 117 62 163 188 158 265 184 241 173 172 229 233 217 96 11 74 291 265 269 244 218 210 208 211 223 226 231 250 248 260 283 274
277 273 270 263 250 242 245 232 198 165 185 180 234 259 188 334 356 294 146 191 225 175 168 173 185 198 199 208 201 209 205 209 173 183 179 181 175 185 209 219 173 195 200 210 226 225 215 209 194 164 175 209 190 180 218 143 163 169 167 168 192 183 242 100 168 219 228 177 181 156 100 64 260 268 253 233 211 190 205 213 211 205 228 239 251 248 249
283 271 259 259 255 244 237 236 220 196 213 256 208 241 148 15 244 272 254 208 159 173 176 182 174 211 194 194 192 181 204 202 157 192 311 45 232 199 203 201 161 198 191 214 219 172 114 116 90 107 65 70 65 98 128 172 167 172 187 149 173 193 180 169 188 216 205 17 172 145 114 98 312 238 232 200 212 200 211 222 211 213 204 223 223 234 246
277 279 269 258 254 246 239 231 224 205 190 215 203 217 164 171 167 310 267 191 169 179 165 206 194 197 184 189 189 190 192 167 168 180 197 160 213 202 190 175 180 197 211 198 104 103 96 89 84 63 70 65 73 59 128 116 77 176 166 154 196 155 188 190 167 212 115 328 138 143 153 206 226 338 135 172 193 200 208 218 218 213 194 222 224 245 224
270 271 271 263 251 246 242 235 221 207 203 243 15 231 183 221 77 136 215 208 196 176 187 195 193 193 194 181 190 174 178 181 192 198 190 179 174 158 175 184 169 211 122 115 108 104 101 70 66 59 54 66 82 84 144 183 226 31 192 174 165 170 175 190 161 162 148 146 146 175 213 224 97 265 315 184 194 200 213 232 232 223 220 223 238 242 219
268 269 269 264 255 250 245 244 231 216 208 159 202 248 185 211 168 168 187 238 207 174 191 218 139 95 191 180 190 194 183 185 181 156 68 135 142 174 178 174 190 134 138 127 124 112 98 110 81 107 113 110 110 123 193 205 210 195 6 359 167 172 171 155 161 130 83 147 185 203 220 60 269 211 130 54 80 213 213 241 243 238 225 215 229 237 243
263 266 264 264 262 252 246 244 249 226 207 183 191 213 147 200 131 119 151 194 223 187 185 130 143 161 153 193 185 131 93 105 73 111 161 159 163 172 135 50 74 139 149 126 118 118 103 155 138 142 180 127 177 202 197 140 42 192 206 213 329 202 114 193 175 183 169 196 204 243 347 314 242 162 179 173 179 180 181 210 242 224 204 203 219 232 235
262 261 263 261 256 256 245 242 246 240 213 182 186 121 156 217 256 139 242 28 218 118 213 205 181 195 151 131 144 145 166 145 146 138 42 28 78 11 57 33 302 153 153 126 138 167 169 147 156 155 183 161 198 197 110 207 135 49 27 24 21 236 209 244 185 220 160 182 200 260 239 245 255 175 150 183 176 155 179 187 261 180 187 197 207 224 223
258 254 258 259 255 254 249 238 236 243 227 187 175 181 206 196 141 61 85 145 169 228 235 234 24 158 153 157 178 167 162 169 157 116 127 93 88 89 25 12 354 7 99 74 146 145 182 156 181 172 194 182 116 94 222 142 307 106 52 72 97 355 67 335 222 223 137 201 214 219 227 241 249 96 122 155 151 144 105 195 261 232 180 194 199 214 216
259 258 254 254 255 250 247 241 228 229 241 195 187 182 214 183 188 157 158 71 205 205 341 95 115 127 86 85 61 53 162 164 153 149 170 166 146 126 51 354 330 145 176 117 191 139 179 185 207 191 178 125 160 185 82 128 178 223 77 89 159 195 206 183 229 224 216 206 217 228 211 261 287 137 152 117 116 128 118 231 259 183 167 195 188 205 196
260 261 257 250 248 249 247 246 238 228 235 204 183 179 214 173 229 151 111 171 180 235 176 206 149 155 184 169 157 120 93 107 83 47 76 105 121 145 165 127 98 333 310 162 184 168 197 193 193 194 190 88 109 121 190 162 169 185 176 171 163 186 212 206 216 220 223 220 233 276 277 255 145 147 125 142 105 144 176 225 143 200 148 124 173 193 166
258 263 265 255 249 243 242 247 243 237 232 218 182 206 242 183 200 226 112 157 196 223 162 131 360 61 96 51 83 114 115 184 146 125 138 119 208 132 116 206 148 162 189 180 200 188 190 205 196 217 190 225 191 192 142 132 182 85 128 132 133 193 162 231 216 230 225 221 232 229 282 258 115 133 135 151 129 201 212 229 87 148 171 182 181 186 185
258 258 259 260 254 244 240 241 241 243 237 221 183 212 168 168 195 198 171 183 192 215 161 180 185 171 217 134 149 134 152 91 245 128 176 154 122 117 112 126 300 105 127 171 215 221 208 205 193 182 212 174 200 126 26 278 86 152 169 206 176 177 170 194 202 203 232 232 250 226 243 133 107 113 58 306 200 276 100 114 27 18 150 156 195 189 140
254 257 258 261 258 250 243 241 242 242 238 237 205 190 220 200 203 227 296 167 148 190 237 137 24 229 162 183 175 159 159 176 176 160 73 90 167 157 174 205 165 158 172 174 184 195 188 208 186 186 235 172 182 134 210 154 216 267 128 188 182 183 165 203 230 185 199 202 213 215 284 121 178 144 182 190 166 111 131 123 155 163 184 178 176 201 172
248 251 252 254 255 254 248 241 241 241 236 235 218 191 228 176 184 202 77 50 183 195 28 44 128 254 20 357 352 317 220 179 185 150 135 124 230 222 41 64 149 165 180 124 80 45 345 184 57 127 182 162 191 209 215 196 221 151 353 289 216 205 196 182 216 182 195 212 234 65 327 157 195 36 353 125 128 124 124 133 156 157 216 190 175 194 192
246 248 248 251 254 257 253 243 239 241 238 229 219 206 218 150 156 140 124 97 28 39 159 12 119 285 277 267 215 224 158 328 162 120 138 132 172 228 195 166 172 159 25 305 191 134 146 148 190 149 86 202 178 178 333 242 244 135 172 224 249 28 107 31 76 261 265 348 110 115 53 168 170 68 15 32 92 63 347 135 127 184 161 173 186 198 174
249 247 247 248 252 252 257 255 240 239 243 239 225 209 214 157 153 112 63 60 195 182 212 92 155 211 209 213 199 158 88 48 200 159 36 147 166 174 23 308 292 68 237 214 323 110 132 80 179 17 197 205 138 190 176 215 225 143 129 181 227 214 109 176 214 220 231 247 92 116 121 154 193 139 101 14 16 133 267 48 107 137 136 163 189 143 179
251 249 246 247 248 253 251 246 244 235 235 241 231 222 209 127 158 150 152 163 191 182 208 170 216 222 140 167 98 98 206 132 96 141 151 183 186 192 191 151 139 179 181 138 206 113 110 129 187 160 204 220 164 223 195 208 230 149 212 225 177 237 165 160 224 240 217 264 102 76 39 337 358 303 205 230 202 190 234 14 47 63 74 100 141 110 128
254 252 250 248 246 243 253 256 247 239 238 240 236 223 207 177 173 167 157 77 50 186 211 224 186 79 113 126 172 192 153 151 169 154 170 140 72 114 125 112 94 55 97 103 206 187 167 131 131 195 199 239 157 184 221 260 350 17 208 230 233 129 121 202 196 205 199 103 157 43 24 333 194 216 261 257 223 162 169 186 191 189 186 182 157 205 190
250 253 253 251 247 242 239 246 244 241 234 240 240 234 216 179 170 173 173 163 147 255 215 236 164 319 261 199 162 102 146 168 159 159 136 122 118 110 125 137 122 129 113 97 35 85 36 153 205 213 208 239 53 354 22 76 158 235 231 223 119 147 209 164 139 191 219 226 183 147 156 217 184 202 214 230 225 191 164 150 188 209 214 205 199 219 224
246 248 250 251 250 247 242 245 251 245 237 234 243 239 223 178 184 198 187 180 188 202 198 193 183 206 71 338 235 152 153 157 167 170 161 144 133 130 141 148 135 146 156 128 144 166 189 192 214 149 61 193 134 242 111 35 18 286 252 239 183 201 209 170 186 210 250 148 144 176 199 238 255 186 209 218 184 154 192 222 230 228 197 177 182 225 226
246 245 246 247 249 248 244 240 241 247 242 237 227 252 258 207 189 215 205 192 189 90 67 45 30 132 165 221 141 124 159 173 171 169 152 147 154 160 152 154 158 151 153 177 196 186 195 218 164 156 168 203 117 208 152 205 205 236 237 223 173 222 197 211 204 232 223 121 168 177 186 204 213 162 191 217 184 167 207 232 235 235 178 169 200 216 223
246 247 245 243 244 244 244 241 236 236 238 220 136 110 224 245 196 195 206 202 195 157 149 150 139 217 58 35 117 182 135 163 175 167 159 157 157 173 172 164 167 162 156 181 192 198 198 200 143 118 14 296 154 212 222 214 235 247 255 245 226 174 146 151 158 215 244 153 171 190 203 207 209 181 190 208 202 200 213 227 233 221 219 199 210 221 222
246 247 247 243 240 240 241 240 237 230 225 195 168 201 185 238 192 187 184 187 146 183 195 192 190 92 66 245 160 186 178 165 169 167 169 163 173 170 164 144 140 157 169 167 199 217 205 203 188 185 152 194 172 211 182 206 243 260 253 240 226 216 168 156 189 214 230 182 146 110 56 198 127 68 270 233 167 167 220 239 239 231 235 229 223 221 219
244 243 244 244 241 239 237 237 237 233 202 199 195 203 241 329 9 161 178 175 135 126 180 139 195 162 176 174 160 276 154 144 135 138 152 167 167 169 156 179 182 182 187 189 195 195 222 214 192 183 174 198 181 145 212 227 240 248 254 232 213 229 151 174 198 206 215 157 106 91 226 229 210 200 223 223 200 202 202 221 228 233 229 232 248 247 235
244 242 241 241 240 238 235 236 237 235 190 212 225 235 178 267 339 188 171 143 129 180 209 211 202 174 192 184 110 327 150 115 147 168 183 175 160 153 157 177 166 166 195 175 203 210 211 186 191 206 186 161 164 186 224 230 238 247 255 258 260 199 182 212 202 186 186 172 173 188 212 215 210 215 225 237 221 187 203 217 231 213 178 201 241 253 253
244 240 238 238 237 233 233 232 234 240 236 226 219 230 231 222 169 203 175 149 135 167 180 197 177 184 158 92 100 180 168 161 174 171 165 180 174 163 178 149 171 168 219 201 208 137 304 195 200 200 181 178 193 206 230 236 239 247 256 258 243 232 208 184 154 194 199 199 203 216 226 232 220 203 222 229 229 194 192 202 178 191 220 226 239 237 237
243 240 235 233 234 234 231 227 229 224 225 212 241 243 221 187 175 185 170 162 148 190 164 208 188 177 128 106 182 165 160 177 171 176 175 162 161 175 170 161 181 197 214 140 224 208 211 213 182 199 207 172 193 214 226 237 240 244 252 253 242 231 126 179 213 219 213 202 201 216 229 238 232 217 223 219 223 209 199 211 196 199 217 228 228 236 228
240 238 236 231 231 228 231 230 227 216 211 212 220 175 169 175 179 177 172 82 188 185 165 192 182 197 153 175 182 173 130 175 169 139 133 129 147 187 171 145 190 207 59 169 183 196 219 188 190 212 171 189 207 206 224 229 237 239 237 239 241 214 208 215 227 209 168 171 194 211 220 223 230 239 246 247 241 203 192 196 189 193 214 229 234 232 228
236 235 235 237 232 225 215 209 189 206 215 190 158 130 155 128 44 172 160 187 233 10 211 173 184 191 189 188 102 150 147 177 137 122 158 141 156 160 138 169 195 156 114 182 194 204 214 196 199 179 194 206 215 217 224 228 230 234 238 237 240 231 227 230 215 182 133 161 176 196 203 215 230 240 247 248 250 213 181 206 198 193 209 224 232 231 224
238 232 215 205 193 200 209 195 200 180 187 144 138 129 162 161 204 174 190 194 196 122 241 289 203 169 156 188 191 173 138 175 128 153 149 163 143 182 167 180 201 181 210 185 204 144 186 209 203 193 224 225 234 227 224 228 232 234 242 246 246 240 232 235 184 153 153 151 198 222 230 230 238 240 234 246 250 238 222 225 222 216 222 232 235 235 238
217 210 186 196 187 198 207 204 149 137 147 145 184 173 193 145 185 222 198 163 150 199 199 182 187 123 176 161 109 137 164 162 153 166 162 186 136 197 150 166 224 185 237 171 221 157 213 197 207 196 223 224 236 236 231 229 233 235 240 246 250 247 209 178 175 195 199 221 232 219 189 202 216 234 231 236 249 248 239 236 229 222 222 230 237 237 237
165 207 181 182 205 197 118 124 135 139 145 156 191 193 212 177 192 224 166 122 208 211 169 202 173 155 191 174 151 172 240 177 165 179 173 174 167 171 170 128 230 154 208 190 188 151 174 191 194 192 231 214 232 235 235 224 232 235 234 239 244 238 217 229 239 231 229 238 239 244 227 212 214 225 227 221 228 242 240 225 225 223 219 230 241 235 235
196 171 194 210 174 129 132 131 128 127 161 175 175 185 208 215 192 213 167 207 190 201 189 158 122 135 170 146 135 156 154 62 6 79 148 174 158 93 156 178 221 150 218 183 165 119 169 204 199 200 222 217 225 234 237 227 228 232 237 250 258 255 253 248 245 236 216 230 247 248 248 236 221 231 247 263 246 244 252 226 212 216 214 226 235 240 3
202 193 109 86 89 133 117 124 156 137 154 203 191 210 187 231 100 40 226 201 192 159 262 183 168 166 171 169 163 128 86 143 111 152 153 181 207 147 204 76 346 143 192 115 84 129 171 182 202 217 227 233 176 94 146 186 31 1 34 27 27 18 14 343 263 189 156 219 240 272 28 41 28 30 38 27 344 314 323 330 241 341 10 351 34 50 40
164 136 123 130 149 144 128 161 174 173 167 174 168 212 174 207 211 186 184 177 328 85 182 53 359 71 22 87 52 47 136 159 149 172 162 174 102 63 146 164 140 177 193 89 121 152 166 197 201 224 175 48 31 46 32 27 347 4 41 28 23 6 13 9 20 53 36 44 48 57 38 77 72 50 351 355 111 106 57 50 53 69 4 74 70 69 58
166 159 131 211 146 184 162 203 168 129 195 180 177 201 166 184 198 143 179 208 182 187 188 149 181 146 164 168 137 130 120 111 194 88 48 21 96 171 148 182 179 125 65 79 162 173 196 218 226 210 93 109 51 26 9 7 5 331 6 18 14 10 5 15 31 46 39 33 49 51 65 77 93 68 41 31 14 72 105 58 29 18 304 111 88 69 24
157 146 126 132 205 173 151 200 132 170 196 194 193 201 190 197 196 188 201 157 150 185 169 175 161 144 126 120 80 47 144 152 163 132 194 137 94 238 143 179 119 116 144 175 157 163 214 237 226 164 110 89 50 18 5 4 2 349 314 312 15 12 12 11 12 20 30 23 10 4 54 62 63 63 52 40 32 23 27 28 350 345 356 61 94 76 25
167 160 147 158 175 177 183 185 122 194 200 179 203 200 202 205 200 194 115 71 151 138 143 171 139 115 107 357 128 159 117 136 131 180 134 134 167 189 144 46 74 140 171 149 155 197 206 211 163 100 41 25 357 339 351 354 358 351 358 17 356 358 7 9 10 10 8 359 5 27 40 54 53 66 58 51 36 32 31 7 1 347 327 31 33 20 359
79 4 159 148 182 175 183 206 196 194 119 153 164 147 216 206 208 125 136 200 158 157 140 122 130 153 140 154 113 48 74 124 132 171 110 127 161 123 39 126 182 178 156 185 189 205 209 120 67 45 11 350 345 340 332 359 9 16 22 7 0 360 2 7 8 18 4 351 358 38 49 50 59 66 78 58 40 28 15 12 9 12 34 41 25 11 20
153 81 123 174 190 143 193 213 86 82 350 281 15 336 310 286 161 152 173 238 171 136 137 130 115 94 57 298 51 132 125 153 116 309 147 153 66 69 154 96 188 181 179 181 207 186 90 58 52 10 354 360 337 344 347 338 13 28 4 3 7 7 0 1 9 5 359 14 17 3 16 49 67 74 76 90 83 40 23 10 9 15 43 52 51 41 43
61 87 122 82 8 351 135 110 146 141 126 95 183 208 215 201 167 103 105 295 178 162 154 144 158 142 149 113 132 140 169 224 137 189 92 57 148 181 154 179 166 187 237 193 137 57 69 45 345 337 360 351 356 349 349 350 304 1 2 333 344 5 1 3 5 0 13 15 15 30 20 359 357 57 101 103 91 65 33 27 42 39 36 46 58 64 61
44 53 22 40 130 53 356 343 118 139 124 128 166 178 254 175 107 91 330 180 163 126 94 44 36 82 149 121 132 164 152 116 141 114 127 189 164 163 95 150 219 186 156 88 81 96 54 359 5 5 10 353 345 350 337 345 0 335 346 354 311 253 34 20 11 25 32 35 37 34 20 30 30 14 6 11 34 72 62 39 27 42 48 45 66 77 76
65 89 102 350 334 12 346 180 186 169 161 145 99 26 350 87 66 95 4 323 166 150 153 156 154 119 125 87 144 121 210 140 113 168 158 164 141 135 194 189 164 81 76 59 64 61 37 15 17 347 339 330 350 346 340 326 342 359 335 328 355 360 73 54 45 43 50 53 52 58 56 53 41 37 31 40 16 18 41 43 25 12 25 32 29 41 64
29 50 46 56 39 18 336 321 33 39 44 48 43 7 336 26 4 328 343 321 180 165 167 153 124 120 118 165 176 98 57 87 154 122 145 57 7 189 113 28 36 31 36 60 58 38 34 29 28 349 324 314 328 343 336 330 316 339 4 345 336 0 11 52 72 68 83 78 69 84 88 79 68 57 45 46 45 43 37 33 13 4 13 27 24 29 44